Regional Weather Roundup
Issued by NWS

Home | Current Version | Previous Version | Text Only | Print | Product List | Glossary On
Versions: 1 2 3 4 5 6 7 8 9 10 11 12 13 14 15 16 17 18 19 20 21 22 23 24 25 26 27 28 29 30 31 32 33 34 35 36 37 38 39 40 41 42 43 44 45 46 47 48 49 50
000
ASUS46 KLOX 172013
RWRCA

SOUTHERN CALIFORNIA WEATHER ROUNDUP
NATIONAL WEATHER SERVICE OXNARD CALIFORNIA
100 PM PDT TUE OCT 17 2017

NOTE: "FAIR" INDICATES FEW OR NO CLOUDS BELOW 12,000 FEET WITH NO
SIGNIFICANT WEATHER AND/OR OBSTRUCTIONS TO VISIBILITY.

  -  STATIONS PRECEEDED BY AN ASTERISK (*) ARE NOT NWS OR FAA
     STATIONS AND ARE NOT SUBJECT TO NWS AND FAA QUALITY CONTROL.

CAZ041-042-087-172100-
LA AND ORANGE COUNTY COASTAL AREAS


CITY           SKY/WX    TMP DP  RH WIND       PRES   REMARKS
L.A. DOWNTOWN  SUNNY     92  32  12 VRB6      29.96F
L.A. AIRPORT   MOSUNNY   78  63  59 W13       29.98F
LONG BEACH     SUNNY     86  47  25 S9        29.96F

CITY           SKY/WX    TMP DP  RH WIND       PRES   REMARKS
AVALON           N/A     75 N/A N/A MISG        N/A
FULLERTON      PTSUNNY   93  33  12 VRB3      29.95F
*GETTY CENTER    N/A     88  36  15 S6          N/A
HAWTHORNE      SUNNY     84  50  30 W13       29.97F
*LEO CARRILLO    N/A     79  58  48 W10         N/A
*LOS ALAMITOS  PTSUNNY   88  48  24 SW10      29.95F
*REDONDO BEACH   N/A     77  64  64 SW3       29.97F
SANTA ANA      MOSUNNY   87  49  26 S8        29.95F
STA MONICA APT SUNNY     80  50  34 SW8       29.97F
TORRANCE       MOSUNNY   82  57  42 NW14      29.96F
*UCLA            N/A     82  37  20 S6        29.94F

$$

CAZ547-548-048-172100-
LA COUNTY VALLEYS AND INLAND EMPIRE


CITY           SKY/WX    TMP DP  RH WIND       PRES   REMARKS
BURBANK        SUNNY     94  24   8 S10       29.97F
VAN NUYS       SUNNY     96  12   4 VRB3      29.96F

CITY           SKY/WX    TMP DP  RH WIND       PRES   REMARKS
CORONA AIRPORT CLEAR     93  32  11 W6        29.97F
*CHATSWORTH      N/A     98  32  10 CALM      29.92F HX  92
CHINO          MOSUNNY   95  30  10 VRB3      29.98F
*CLAREMONT       N/A     91  24   9 SW7         N/A
MARCH AFB      SUNNY     93  13   5 CALM      30.01F
*NORTHRIDGE      N/A     99  21   6 S3          N/A  HX  92
ONTARIO        MOSUNNY   94  20   7 VRB6      29.98F
*PASADENA        N/A     93  36  13 E3          N/A
POMONA         SUNNY     91  27   9 W12       30.02F
RIVERSIDE      SUNNY     93  26   9 VRB5      29.97F
SAN BERNARDINO MOSUNNY   95  23   7 CALM      29.99F
*SAN RAFAEL HI   N/A     93  20   7 SW5         N/A
*SAUGUS          N/A     95  21   7 W3          N/A
*WHITEMAN AP   SUNNY     95  19   6 S8        30.01F
*WHITTIER HILL   N/A     93  31  11 SW7         N/A
*WOODLAND HILL   N/A     99  25   7 SE2         N/A  HX  92

$$

CAZ054-055-172100-
LA AND SAN BERNARDINO COUNTY MOUNTAINS


CITY           SKY/WX    TMP DP  RH WIND       PRES   REMARKS
*ACTON           N/A     92  19   7 W3          N/A
*BIG BEAR AIRP CLEAR     72  27  18 SW8G17    30.34F
*BIG PINES       N/A     75  27  17 SW2         N/A
*CHILAO          N/A     80  33  18 N7G18       N/A
SANDBERG       PTSUNNY   87  11   6 N15G23    30.23F
*WARM SPRINGS    N/A     84  26  12 W3G15       N/A

$$

CAZ028-029-059-060-099-172100-
ANTELOPE VALLEY AND SURROUNDING AREAS


CITY           SKY/WX    TMP DP  RH WIND       PRES   REMARKS
LANCASTER      SUNNY     86   9   5 E3        30.09F
PALMDALE       SUNNY     85  11   6 E3        30.10F
*POPPY PARK      N/A     88   9   5 E5          N/A

CITY           SKY/WX    TMP DP  RH WIND       PRES   REMARKS
29 PALMS       SUNNY     87  -5   3 NW3       30.13F
BARSTOW/DAGGET SUNNY     83  12   7 CALM      30.08F
BISHOP         PTSUNNY   71   8   8 CALM      30.17F
CHINA LAKE     MOSUNNY   82   6   5 NW3       30.08F
EDWARDS AFB    PTSUNNY   79   2   5 CALM      30.07F
MOJAVE         SUNNY     81  10   7 CALM      30.12F
NEEDLES        SUNNY     90   6   4 NE5       30.01F
VICTORVILLE    SUNNY     84  12   6 CALM      30.12F

$$

CAZ039-040-172100-
VENTURA AND SANTA BARBARA COUNTY COAST


CITY           SKY/WX    TMP DP  RH WIND       PRES   REMARKS
CAMARILLO      MOSUNNY   84  47  27 SW8       29.98F
OXNARD AIRPORT MOSUNNY   74  62  66 W9        29.98F
*POINT MUGU    PTSUNNY   77  61  57 W8        29.99F
SBA APT/GOLETA MOSUNNY   79  58  48 SW7       29.98F
*SANTA BARBARA   N/A     81  58  45 CALM      30.05S
*VENTURA         N/A     84  61  45 W2        29.93F

$$

CAZ044-045-172100-
VENTURA COUNTY VALLEYS


CITY           SKY/WX    TMP DP  RH WIND       PRES   REMARKS
*SIMI VALLEY     N/A     93  38  14 SW5       29.89F
*WESTLAKE VILL   N/A     90  52  26 CALM      29.96S
*OJAI            N/A     97  40  14 W1        29.89F HX  93

$$

CAZ053-172100-
VENTURA COUNTY MOUNTAINS


CITY           SKY/WX    TMP DP  RH WIND       PRES   REMARKS
*LOCKWOOD VLY    N/A     81  37  21 MISG        N/A
*FRAZIER MTN     N/A     61  27  27 NW9       29.96F
*ROSE VALLEY     N/A     86  34  15 W9G17       N/A

$$

CAZ034-035-036-172100-
CENTRAL COAST AND SANTA YNEZ VALLEY


CITY           SKY/WX    TMP DP  RH WIND       PRES   REMARKS
SAN LUIS OBISP MOSUNNY   81  50  33 NW21      30.06R
SANTA MARIA    MOSUNNY   79  41  25 NW21G26   30.07S

CITY           SKY/WX    TMP DP  RH WIND       PRES   REMARKS
*CAL POLY SLO    N/A     81  46  30 SW9         N/A
*LOMPOC        MOSUNNY   71  58  63 W22       30.08R
*PISMO BEACH     N/A     66  60  80 CALM      30.05F
*SANTA YNEZ    FAIR      82  32  16 SW8       30.05F

$$

CAZ037-038-051-172100-
SAN LUIS OBISPO COUNTY INTERIOR AND CUYAMA VALLEY


CITY           SKY/WX    TMP DP  RH WIND       PRES   REMARKS
*CUYAMA          N/A     83  21  10 W5        29.99F
PASO ROBLES    MOSUNNY   85  30  13 CALM      30.06F

$$

CAZ032-033-061-172100-
SOUTHERN DESERTS


CITY           SKY/WX    TMP DP  RH WIND       PRES   REMARKS
BLYTHE         SUNNY     92   6   4 N3        29.97F
IMPERIAL       SUNNY     95  28   9 N3        29.92F
PALM SPRINGS   SUNNY     98  15   5 VRB6      29.96F HX  91
THERMAL        SUNNY     97  18   6 CALM      29.90F HX  90

$$

ELSEWHERE ACROSS THE WESTERN UNITED STATES AND MEXICO


CITY           SKY/WX    TMP DP  RH WIND       PRES   REMARKS
DEATH VALLEY,    N/A     84  10   6 CALM        N/A
DENVER, CO     MOSUNNY   75   9   8 SE3       30.15F
GRAND CANYON,  SUNNY     74  19  12 W9G17     30.34F
HONOLULU, HI   MOSUNNY   84  63  48 NE20G29   30.08S
KAHULUI, MAUI  MOSUNNY   82  63  51 NE15G25   30.10R
LAKE TAHOE, CA PTSUNNY   65  29  25 N6        30.30F
LAS VEGAS, NV  MOSUNNY   81  14   8 NE3       30.09F
MAMMOTH LAKES, FAIR      67  29  24 W16G22    30.35F
MEXICO CITY, M PTSUNNY   66  48  52 NW10      30.38F
PHOENIX, AZ    PTSUNNY   95  47  19 VRB3      29.95F HX  91
PORTLAND, OR   CLOUDY    58  49  72 SW10      30.15R
RENO, NV       PTSUNNY   67  26  21 CALM      30.22F
SALT LAKE CITY PTSUNNY   65  26  23 E3        30.20F
SAN DIEGO, CA  PTSUNNY   81  55  40 NW7       29.98F
SAN FRANCISCO, PTSUNNY   68  50  52 NE5       30.09F HAZE
SAN JOSE, CA   PTSUNNY   77  37  23 NW6       30.09F HAZE
SEATTLE, WA    PTSUNNY   57  49  74 SW18G25   30.05F
TIJUANA, MEX   PTSUNNY   90  30  12 NW7       30.00F

$$

STATION/POSITION TIME  TEMP    WIND        PRES    VSBY  WAVE
                       AIR SEA DIR/SP/G                  HT/PER
                 (UTC) (F)     (DEG/KT/KT) (MB)    (MI)  (FT/S)
POINT ARGUELLO B NOT AVBL
WEST SANTA BARBA 2000   64 65  300/ 21/ 25 1017.0
POINT CONCEPTION NOT AVBL
EAST SANTA BARBA 2000   68 67  280/ 12/ 17 1016.2
SANTA MONICA BAY 2000      70  310/  8/ 10 1015.1



USA.gov is the U.S. government's official web portal to all federal, state and local government web resources and services.